Flag for U.S.A. Weather past 2 weeks in Minot, North Dakota, U.S.A.

Now
3 °F

Light snow. Overcast.


Feels Like: -20 °F
Forecast: -3 / 12 °F
Wind: 25 mph from Northwest

Location: Minot International Airport

Current Time: Mar 3, 2015 at 11:38:17 AM

Latest Report: Mar 3, 2015 at 11:04 AM


Visibility: 3 mi

Pressure: 30.00 "Hg

Humidity: 66%

Dew point: -6 °F

Location of MinotLocation

Historic Weather in Minot — Graph

°F

Minot temperature yesterday

Maximum temperature yesterday: 34 °F (at 4:54 PM)
Minimum temperature yesterday: 6 °F (at 6:54 AM)
Average temperature yesterday: 19 °F

Past Weeks' High & Low Weather Summary

 TemperatureHumidityPressure
High34 °F (Mar 2, 4:54 PM)93% (Feb 20, 6:54 AM)30.88 "Hg (Feb 20, 6:54 AM)
Low-23 °F (Feb 22, 7:54 AM)49% (Feb 27, 3:54 PM)29.66 "Hg (Feb 20, 3:02 AM)
Average8 °F70%30.26 "Hg
* Reported Feb 16 10:54 AM — Mar 3 10:04 AM, Minot, Weather by CustomWeather, © 2015

Note: Actual official high and low records may vary slightly from our data, if they occured in-between our weather recording intervals... More about our weather records

Advertising

Minot weather history for previous 24 hours

 ConditionsComfort  
Time TempWeatherWind HumidityBarometerVisibility
10:04 AM
Tue, Mar 3
2 °FLight snow. Overcast.25 mph69%30.01 "Hg2 mi
9:54 AM2 °FLight snow. Overcast.25 mph65%30.13 "Hg3 mi
8:54 AM1 °FOvercast.21 mph68%30.12 "Hg9 mi
7:54 AM1 °FSunny.23 mph65%30.09 "Hg10 mi
6:54 AM1 °FClear.22 mph62%30.07 "Hg10 mi
5:54 AM2 °FLight snow. Passing clouds.25 mph65%30.06 "Hg8 mi
4:54 AM3 °FLight snow. Clear.23 mph69%30.03 "Hg9 mi
3:54 AM6 °FLight snow. Clear.26 mph69%30.00 "Hg9 mi
2:54 AM8 °FLight snow. Clear.30 mph72%30.01 "Hg5 mi
1:54 AM11 °FLight snow. Mostly cloudy.29 mph77%29.97 "Hg5 mi
12:54 AM15 °FLight snow. Overcast.25 mph74%29.96 "Hg9 mi
11:54 PM
Mon, Mar 2
15 °FLight snow. Clear.28 mph74%29.93 "Hg9 mi
10:54 PM17 °FLight snow. Clear.26 mph74%29.90 "Hg9 mi
9:54 PM18 °FLight snow. Passing clouds.26 mph74%29.90 "Hg9 mi
9:03 PM21 °FLight snow. Passing clouds.30 mph74%29.77 "Hg9 mi
8:54 PM23 °FLight snow. Partly cloudy.29 mph74%29.86 "Hg9 mi
7:54 PM28 °FClear.20 mph64%29.84 "Hg10 mi
6:54 PM31 °FClear.8 mph64%29.80 "Hg8 mi
5:54 PM33 °FSunny.6 mph58%29.79 "Hg10 mi
4:54 PM34 °FSunny.13 mph56%29.79 "Hg10 mi
3:54 PM33 °FSunny.12 mph58%29.82 "Hg10 mi
2:54 PM32 °FSunny.20 mph56%29.83 "Hg10 mi
1:54 PM30 °FSunny.22 mph56%29.88 "Hg10 mi
12:54 PM28 °FSunny.20 mph58%29.93 "Hg10 mi
11:54 AM23 °FSunny.24 mph65%29.99 "Hg10 mi
Weather by CustomWeather, © 2015

See weather overviewHow to use our weather pages